LSP082 SCCI-SCEL

Flight info

Callsign LSP082
Flight time 2h 45m
Altitude 36000
Route SIRUN4A SIRUN UQ802 VOVKI/N0481F380 UQ802 EROLO EROLO7F
Aircraft B77W/H-SDE1E2E3FGHIJ2J3J4J5M1RWXY/LB1D1

Departure

Time 2026-04-24 16:26
Airport President Carlos Ibáñez International Airport (SCCI)

Arrival

Time 2026-04-24 19:11
Airport Comodoro Arturo Merino Benítez International Airport (SCEL)
Time Latitude Longitude Altitude Speed Heading
2026-04-24 16:03 -53.00445 -70.84670 154 ft 0 kts 225°
2026-04-24 16:18 -53.00425 -70.84639 180 ft 1 kts 220°
2026-04-24 16:18 -53.00400 -70.84624 180 ft 3 kts 152°
2026-04-24 16:18 -53.00391 -70.84639 180 ft 3 kts 79°
2026-04-24 16:19 -53.00399 -70.84695 179 ft 0 kts 90°
2026-04-24 16:20 -53.00399 -70.84694 179 ft 0 kts 89°
2026-04-24 16:21 -53.00391 -70.84599 180 ft 8 kts 78°
2026-04-24 16:21 -53.00383 -70.84495 180 ft 10 kts 85°
2026-04-24 16:21 -53.00359 -70.84397 180 ft 10 kts 28°
2026-04-24 16:22 -53.00314 -70.84380 180 ft 10 kts
2026-04-24 16:22 -53.00240 -70.84265 180 ft 9 kts 97°
2026-04-24 16:22 -53.00242 -70.84166 180 ft 9 kts 90°
2026-04-24 16:23 -53.00243 -70.84067 180 ft 9 kts 90°
2026-04-24 16:23 -53.00243 -70.83968 180 ft 9 kts 88°
2026-04-24 16:23 -53.00241 -70.83867 180 ft 9 kts 88°
2026-04-24 16:24 -53.00236 -70.83658 179 ft 9 kts 89°
2026-04-24 16:24 -53.00236 -70.83554 178 ft 9 kts 91°
2026-04-24 16:24 -53.00221 -70.83456 178 ft 9 kts 47°
2026-04-24 16:24 -53.00161 -70.83427 177 ft 9 kts
2026-04-24 16:25 -53.00097 -70.83433 177 ft 9 kts 339°
2026-04-24 16:25 -53.00068 -70.83526 176 ft 10 kts 272°
2026-04-24 16:25 -53.00068 -70.83742 177 ft 46 kts 269°
2026-04-24 16:26 -53.00100 -70.86321 192 ft 165 kts 269°
2026-04-24 16:26 -53.00134 -70.88240 866 ft 158 kts 269°
2026-04-24 16:26 -52.98937 -70.91249 2277 ft 181 kts 306°
2026-04-24 16:27 -52.97988 -70.92896 2605 ft 213 kts 304°
2026-04-24 16:27 -52.96927 -70.94775 3289 ft 232 kts 306°
2026-04-24 16:27 -52.95804 -70.96760 4242 ft 237 kts 306°
2026-04-24 16:27 -52.94663 -70.98794 5050 ft 245 kts 306°
2026-04-24 16:28 -52.93498 -71.00886 5898 ft 249 kts 306°
2026-04-24 16:28 -52.92320 -71.03012 6706 ft 252 kts 306°
2026-04-24 16:28 -52.89907 -71.07369 8351 ft 260 kts 306°
2026-04-24 16:29 -52.88641 -71.09546 9164 ft 265 kts 307°
2026-04-24 16:29 -52.87338 -71.11746 9917 ft 270 kts 307°
2026-04-24 16:29 -52.84573 -71.16421 10793 ft 308 kts 308°
2026-04-24 16:30 -52.81327 -71.21904 11555 ft 352 kts 309°
2026-04-24 16:30 -52.79584 -71.24827 12441 ft 361 kts 309°
2026-04-24 16:30 -52.77804 -71.27807 13430 ft 367 kts 309°
2026-04-24 16:31 -52.76026 -71.30790 14338 ft 372 kts 309°
2026-04-24 16:31 -52.74193 -71.33865 15209 ft 379 kts 310°
2026-04-24 16:31 -52.72328 -71.36987 16061 ft 385 kts 310°
2026-04-24 16:31 -52.70369 -71.40069 16959 ft 393 kts 313°
2026-04-24 16:32 -52.68328 -71.43116 17834 ft 399 kts 314°
2026-04-24 16:32 -52.66235 -71.46187 18610 ft 405 kts 314°
2026-04-24 16:32 -52.64118 -71.49287 19397 ft 409 kts 313°
2026-04-24 16:32 -52.61983 -71.52422 20177 ft 413 kts 313°
2026-04-24 16:33 -52.59831 -71.55592 20935 ft 418 kts 313°
2026-04-24 16:33 -52.57655 -71.58807 21674 ft 423 kts 313°
2026-04-24 16:33 -52.55454 -71.62062 22380 ft 428 kts 313°
2026-04-24 16:33 -52.53228 -71.65353 23112 ft 433 kts 313°
2026-04-24 16:34 -52.50979 -71.68675 23716 ft 437 kts 313°
2026-04-24 16:34 -52.48708 -71.72025 24300 ft 441 kts 313°
2026-04-24 16:34 -52.46411 -71.75408 24887 ft 446 kts 313°
2026-04-24 16:34 -52.44095 -71.78813 25435 ft 450 kts 313°
2026-04-24 16:35 -52.41752 -71.82252 26009 ft 454 kts 313°
2026-04-24 16:35 -52.39417 -71.85674 26532 ft 458 kts 313°
2026-04-24 16:35 -52.37031 -71.89165 27087 ft 461 kts 312°
2026-04-24 16:35 -52.34628 -71.92677 27582 ft 465 kts 312°
2026-04-24 16:36 -52.32202 -71.96219 27992 ft 470 kts 312°
2026-04-24 16:36 -52.29745 -71.99799 28420 ft 475 kts 312°
2026-04-24 16:36 -52.27269 -72.03400 28879 ft 478 kts 312°
2026-04-24 16:36 -52.24777 -72.07019 29310 ft 481 kts 312°
2026-04-24 16:37 -52.22265 -72.10661 29703 ft 484 kts 312°
2026-04-24 16:37 -52.19741 -72.14318 30068 ft 486 kts 312°
2026-04-24 16:37 -52.17211 -72.17980 30491 ft 486 kts 312°
2026-04-24 16:37 -52.14676 -72.21645 30929 ft 486 kts 312°
2026-04-24 16:38 -52.12152 -72.25290 31333 ft 486 kts 312°
2026-04-24 16:38 -52.09621 -72.28941 31756 ft 486 kts 312°
2026-04-24 16:38 -52.07087 -72.32593 32153 ft 487 kts 312°
2026-04-24 16:38 -52.04553 -72.36238 32562 ft 487 kts 312°
2026-04-24 16:39 -52.02017 -72.39879 32954 ft 487 kts 312°
2026-04-24 16:39 -51.99512 -72.43470 33329 ft 487 kts 312°
2026-04-24 16:39 -51.96969 -72.47110 33707 ft 487 kts 312°
2026-04-24 16:39 -51.94428 -72.50741 34006 ft 487 kts 313°
2026-04-24 16:40 -51.91884 -72.54372 34310 ft 487 kts 312°
2026-04-24 16:40 -51.89343 -72.57995 34610 ft 487 kts 312°
2026-04-24 16:40 -51.86801 -72.61611 34911 ft 487 kts 313°
2026-04-24 16:40 -51.84221 -72.65188 35198 ft 489 kts 315°
2026-04-24 16:41 -51.81452 -72.68440 35467 ft 495 kts 322°
2026-04-24 16:41 -51.78491 -72.71307 35695 ft 498 kts 324°
2026-04-24 16:41 -51.72462 -72.76975 35776 ft 502 kts 324°
2026-04-24 16:42 -51.66467 -72.82640 35793 ft 496 kts 323°
2026-04-24 16:42 -51.60542 -72.88289 35796 ft 493 kts 323°
2026-04-24 16:43 -51.54656 -72.93905 35797 ft 491 kts 323°
2026-04-24 16:43 -51.48768 -72.99494 35804 ft 491 kts 323°
2026-04-24 16:44 -51.42865 -73.05085 35825 ft 494 kts 323°
2026-04-24 16:44 -51.36965 -73.10652 35813 ft 497 kts 323°
2026-04-24 16:45 -51.30968 -73.16293 35853 ft 496 kts 323°
2026-04-24 16:45 -51.25010 -73.21878 35847 ft 497 kts 323°
2026-04-24 16:46 -51.19076 -73.27418 35883 ft 498 kts 323°
2026-04-24 16:46 -51.13092 -73.32991 35868 ft 498 kts 323°
2026-04-24 16:47 -51.07102 -73.38550 35866 ft 498 kts 323°
2026-04-24 16:47 -51.01079 -73.44126 35880 ft 497 kts 323°
2026-04-24 16:48 -50.95138 -73.49612 35892 ft 498 kts 323°
2026-04-24 16:48 -50.89143 -73.55131 35924 ft 498 kts 323°
2026-04-24 16:49 -50.83144 -73.60638 35913 ft 499 kts 323°
2026-04-24 16:49 -50.77132 -73.66136 35924 ft 499 kts 323°
2026-04-24 16:50 -50.71111 -73.71629 35936 ft 500 kts 323°
2026-04-24 16:50 -50.65082 -73.77111 35931 ft 500 kts 323°
2026-04-24 16:51 -50.59056 -73.82574 35960 ft 500 kts 323°
2026-04-24 16:51 -50.53023 -73.88033 35974 ft 500 kts 323°
2026-04-24 16:52 -50.46981 -73.93476 35979 ft 500 kts 323°
2026-04-24 16:52 -50.40942 -73.98870 35975 ft 500 kts 326°
2026-04-24 16:53 -50.37731 -74.00937 35968 ft 511 kts 337°
2026-04-24 16:53 -50.34221 -74.02097 35986 ft 521 kts 347°
2026-04-24 16:53 -50.30570 -74.02317 35972 ft 530 kts 359°
2026-04-24 16:53 -50.26889 -74.01848 36000 ft 531 kts
2026-04-24 16:54 -50.19530 -74.00647 35973 ft 532 kts
2026-04-24 16:54 -50.12151 -73.99520 35992 ft 533 kts
2026-04-24 16:55 -50.04758 -73.98520 35975 ft 533 kts 360°
2026-04-24 16:55 -49.97365 -73.97563 36004 ft 533 kts 360°
2026-04-24 16:56 -49.89974 -73.96602 36003 ft 533 kts 360°
2026-04-24 16:56 -49.82572 -73.95633 36013 ft 534 kts 360°
2026-04-24 16:57 -49.75177 -73.94662 35977 ft 532 kts
2026-04-24 16:57 -49.67827 -73.93701 36014 ft 529 kts
2026-04-24 16:58 -49.60497 -73.92750 36028 ft 528 kts
2026-04-24 16:58 -49.53179 -73.91801 36028 ft 527 kts
2026-04-24 16:59 -49.45871 -73.90856 36016 ft 527 kts 360°
2026-04-24 17:00 -49.34955 -73.89452 36031 ft 528 kts 360°
2026-04-24 17:00 -49.23952 -73.88040 36030 ft 530 kts 359°
2026-04-24 17:01 -49.12911 -73.86632 36043 ft 531 kts
2026-04-24 17:02 -49.01870 -73.85223 36049 ft 530 kts 359°
2026-04-24 17:02 -48.94520 -73.84290 36055 ft 529 kts 359°
2026-04-24 17:03 -48.83507 -73.82900 36066 ft 529 kts 359°
2026-04-24 17:04 -48.76166 -73.81977 36064 ft 529 kts 359°
2026-04-24 17:04 -48.65209 -73.80602 36073 ft 529 kts 359°
2026-04-24 17:05 -48.57879 -73.79687 36059 ft 528 kts 359°
2026-04-24 17:06 -48.46907 -73.78323 36087 ft 526 kts 359°
2026-04-24 17:06 -48.35955 -73.76963 36049 ft 526 kts 359°
2026-04-24 17:07 -48.28674 -73.76064 36087 ft 524 kts 359°
2026-04-24 17:08 -48.14127 -73.74284 36063 ft 524 kts 359°
2026-04-24 17:08 -48.06868 -73.73403 36083 ft 523 kts 359°
2026-04-24 17:09 -47.93588 -73.71797 36118 ft 523 kts 359°
2026-04-24 17:10 -47.79100 -73.70052 36112 ft 522 kts 359°
2026-04-24 17:12 -47.50160 -73.66598 36128 ft 523 kts 359°
2026-04-24 18:54 -33.52740 -71.08430 22105 ft 430 kts 353°
2026-04-24 18:55 -33.46816 -71.08560 20917 ft 421 kts 354°
2026-04-24 18:55 -33.43899 -71.08626 20331 ft 417 kts 354°
2026-04-24 18:55 -33.41010 -71.08692 19768 ft 414 kts 354°
2026-04-24 18:56 -33.38140 -71.08756 19195 ft 411 kts 354°
2026-04-24 18:56 -33.35291 -71.08819 18618 ft 408 kts 355°
2026-04-24 18:56 -33.32453 -71.08885 17975 ft 407 kts 355°
2026-04-24 18:56 -33.29629 -71.08948 17353 ft 405 kts 355°
2026-04-24 18:57 -33.26823 -71.09010 16748 ft 402 kts 355°
2026-04-24 18:57 -33.24071 -71.09070 16158 ft 399 kts 355°
2026-04-24 18:57 -33.21306 -71.09132 15576 ft 396 kts 356°
2026-04-24 18:57 -33.18566 -71.09008 15006 ft 394 kts
2026-04-24 18:58 -33.15860 -71.08482 14434 ft 393 kts
2026-04-24 18:58 -33.13186 -71.07818 13861 ft 392 kts
2026-04-24 18:58 -33.10523 -71.07148 13154 ft 391 kts
2026-04-24 18:58 -33.07873 -71.06515 12797 ft 382 kts
2026-04-24 18:59 -33.05297 -71.05932 12565 ft 371 kts
2026-04-24 18:59 -33.02802 -71.05385 12408 ft 358 kts
2026-04-24 18:59 -33.00393 -71.04866 12260 ft 346 kts
2026-04-24 18:59 -32.98067 -71.04365 12169 ft 334 kts
2026-04-24 19:00 -32.95819 -71.03884 12049 ft 323 kts
2026-04-24 19:00 -32.93637 -71.03416 11936 ft 313 kts
2026-04-24 19:00 -32.91573 -71.02782 11803 ft 302 kts 23°
2026-04-24 19:00 -32.89928 -71.01295 11689 ft 296 kts 48°
2026-04-24 19:01 -32.88923 -70.99185 11484 ft 295 kts 70°
2026-04-24 19:01 -32.88549 -70.96787 11175 ft 296 kts 86°
2026-04-24 19:01 -32.88850 -70.94371 10783 ft 298 kts 107°
2026-04-24 19:01 -32.89529 -70.92031 10376 ft 300 kts 107°
2026-04-24 19:02 -32.89974 -70.90472 10149 ft 300 kts 107°
2026-04-24 19:02 -32.90848 -70.87325 9727 ft 297 kts 107°
2026-04-24 19:02 -32.91760 -70.85174 9382 ft 293 kts 129°
2026-04-24 19:02 -32.93378 -70.83730 8992 ft 291 kts 156°
2026-04-24 19:03 -32.95275 -70.83118 8721 ft 284 kts 173°
2026-04-24 19:03 -32.97227 -70.82810 8364 ft 281 kts 172°
2026-04-24 19:03 -32.99157 -70.82496 8049 ft 278 kts 175°
2026-04-24 19:03 -33.01075 -70.82302 7729 ft 275 kts 178°
2026-04-24 19:04 -33.02978 -70.82181 7418 ft 272 kts 179°
2026-04-24 19:04 -33.04861 -70.82082 7133 ft 270 kts 178°
2026-04-24 19:04 -33.06727 -70.81988 6833 ft 267 kts 178°
2026-04-24 19:04 -33.08578 -70.81891 6524 ft 265 kts 178°
2026-04-24 19:05 -33.10398 -70.81795 6213 ft 257 kts 178°
2026-04-24 19:05 -33.12125 -70.81703 5930 ft 238 kts 178°
2026-04-24 19:05 -33.13718 -70.81619 5650 ft 222 kts 178°
2026-04-24 19:05 -33.15236 -70.81539 5400 ft 217 kts 178°
2026-04-24 19:06 -33.16712 -70.81461 5163 ft 205 kts 178°
2026-04-24 19:06 -33.18061 -70.81390 5070 ft 184 kts 177°
2026-04-24 19:06 -33.19287 -70.81325 5035 ft 172 kts 178°
2026-04-24 19:06 -33.20466 -70.81262 4813 ft 165 kts 177°
2026-04-24 19:07 -33.21585 -70.81203 4603 ft 157 kts 178°
2026-04-24 19:07 -33.22658 -70.81146 4411 ft 154 kts 178°
2026-04-24 19:07 -33.23364 -70.81110 4274 ft 153 kts 178°
2026-04-24 19:07 -33.24762 -70.81033 4014 ft 152 kts 178°
2026-04-24 19:08 -33.25826 -70.80979 3823 ft 151 kts 178°
2026-04-24 19:08 -33.26871 -70.80921 3637 ft 149 kts 178°
2026-04-24 19:08 -33.27902 -70.80868 3445 ft 150 kts 178°
2026-04-24 19:08 -33.28932 -70.80815 3233 ft 146 kts 179°
2026-04-24 19:09 -33.29931 -70.80762 3040 ft 143 kts 178°
2026-04-24 19:09 -33.30941 -70.80704 2862 ft 146 kts 178°
2026-04-24 19:09 -33.31974 -70.80650 2656 ft 152 kts 178°
2026-04-24 19:09 -33.33012 -70.80596 2421 ft 147 kts 177°
2026-04-24 19:10 -33.34037 -70.80541 2226 ft 147 kts 177°
2026-04-24 19:10 -33.35061 -70.80487 2051 ft 147 kts 177°
2026-04-24 19:10 -33.36070 -70.80434 1837 ft 143 kts 177°
2026-04-24 19:10 -33.37049 -70.80382 1633 ft 141 kts 177°
2026-04-24 19:11 -33.38002 -70.80330 1577 ft 128 kts 178°
2026-04-24 19:11 -33.38666 -70.80295 1579 ft 62 kts 177°
2026-04-24 19:11 -33.38904 -70.80282 1579 ft 23 kts 177°
2026-04-24 19:11 -33.39062 -70.80273 1579 ft 23 kts 177°
2026-04-24 19:12 -33.39218 -70.80255 1577 ft 23 kts 165°
2026-04-24 19:12 -33.39361 -70.80175 1575 ft 23 kts 149°
2026-04-24 19:12 -33.39441 -70.80116 1572 ft 5 kts 148°
2026-04-24 19:12 -33.39477 -70.80086 1571 ft 7 kts 142°
2026-04-24 19:13 -33.39502 -70.80057 1571 ft 8 kts 132°
2026-04-24 19:13 -33.39527 -70.79976 1570 ft 8 kts 97°
2026-04-24 19:13 -33.39528 -70.79905 1570 ft 9 kts 89°
2026-04-24 19:13 -33.39526 -70.79824 1569 ft 12 kts 89°
2026-04-24 19:14 -33.39522 -70.79710 1569 ft 16 kts 87°
2026-04-24 19:14 -33.39516 -70.79565 1569 ft 19 kts 87°
2026-04-24 19:14 -33.39510 -70.79411 1569 ft 19 kts 87°
2026-04-24 19:14 -33.39503 -70.79257 1569 ft 19 kts 87°
2026-04-24 19:15 -33.39497 -70.79103 1569 ft 19 kts 87°
2026-04-24 19:15 -33.39493 -70.78981 1569 ft 10 kts 88°
2026-04-24 19:15 -33.39502 -70.78914 1569 ft 8 kts 132°
2026-04-24 19:15 -33.39556 -70.78891 1569 ft 8 kts 173°
2026-04-24 19:16 -33.39671 -70.78882 1569 ft 8 kts 178°
2026-04-24 19:16 -33.39729 -70.78879 1569 ft 8 kts 178°
2026-04-24 19:16 -33.39787 -70.78877 1569 ft 8 kts 178°
2026-04-24 19:17 -33.39845 -70.78874 1569 ft 8 kts 178°
2026-04-24 19:17 -33.39904 -70.78872 1569 ft 9 kts 178°
2026-04-24 19:17 -33.39964 -70.78868 1569 ft 9 kts 176°
2026-04-24 19:17 -33.40023 -70.78863 1569 ft 9 kts 176°
2026-04-24 19:18 -33.40081 -70.78859 1569 ft 7 kts 176°
2026-04-24 19:18 -33.40118 -70.78873 1569 ft 5 kts 232°
2026-04-24 19:18 -33.40129 -70.78913 1569 ft 5 kts 258°
2026-04-24 19:18 -33.40113 -70.78946 1569 ft 5 kts 336°
2026-04-24 19:19 -33.40074 -70.78955 1569 ft 6 kts 352°
2026-04-24 19:19 -33.40051 -70.78958 1569 ft 0 kts 354°